Regional Weather Roundup
Issued by NWS

Home | Current Version | Previous Version | Text Only | Print | Product List | Glossary On
Versions: 1 2 3 4 5 6 7 8 9 10 11 12 13 14 15 16 17 18 19 20 21 22 23 24 25 26 27 28 29 30 31 32 33 34 35 36 37 38 39 40 41 42 43 44 45 46 47 48 49 50
000
ASUS43 KMKX 251021
RWRWI

WISCONSIN REGIONAL WEATHER ROUNDUP
NATIONAL WEATHER SERVICE MILWAUKEE/SULLIVAN WI
400 AM CST TUE FEB 25 2020

NOTE: "FAIR" INDICATES FEW OR NO CLOUDS BELOW 12,000 FEET WITH NO
SIGNIFICANT WEATHER AND/OR OBSTRUCTIONS TO VISIBILITY.

WIZ001-002-006>008-014>016-023>028-251100-
NORTHWEST WISCONSIN

CITY           SKY/WX    TMP DP  RH WIND       PRES   REMARKS
SUPERIOR ARPT  MOCLDY    31  28  88 NE6       30.20R WCI  25
ASHLAND        MOCLDY    24  22  91 NE7       30.19R WCI  16
HAYWARD        FAIR      17  13  84 NE6       30.14R WCI   9
SIREN          FAIR      15  12  87 CALM      30.15R
CUMBERLAND     FAIR      23  16  74 NE5       30.11R WCI  17
RICE LAKE      FAIR      28  21  76 N9        30.13R WCI  19
CHETEK         FAIR      25  18  75 NE3       30.11S
LADYSMITH      FAIR      24  20  85 NE3       30.13R
EAU CLAIRE     FAIR      29  20  69 NE10      30.09R WCI  20
MENOMONIE      FAIR      25  18  76 N6        30.11R WCI  18
NEW RICHMOND   FAIR      23  17  75 N6        30.11S WCI  16
OSCEOLA        FAIR      23  18  80 N5        30.15S WCI  17
$$

WIZ003>005-009-010-017-018-251100-
NORTH CENTRAL WISCONSIN

CITY           SKY/WX    TMP DP  RH WIND       PRES   REMARKS
MANITOWISH WTR NOT AVBL
ARBOR VITAE    FAIR      25  23  93 N10       30.08S WCI  14
WOODRUFF       FAIR      25  23  93 N10       30.08S WCI  14
RHINELANDER    FAIR      22  19  89 N3        30.07R
EAGLE RIVER    MOCLDY    23  22  95 N8        30.07R WCI  14
LAND O LAKES   MOCLDY    25  21  85 N9        30.10R WCI  16
PHILLIPS       FAIR      19  19 100 CALM      30.09S
TOMAHAWK       CLOUDY    21  19  93 CALM      30.09R
MEDFORD        FAIR      23  19  86 NE8       30.07R WCI  14
MERRILL        FAIR      23  20  88 N7        30.08R WCI  15
$$

WIZ029-030-035-036-043>047-251100-
CENTRAL WISCONSIN

CITY           SKY/WX    TMP DP  RH WIND       PRES   REMARKS
WAUSAU         FAIR      26  21  81 N9        30.05R WCI  17
MOSINEE        FAIR      28  21  74 N12       30.07R WCI  18
MARSHFIELD     FAIR      28  21  75 NE12      30.04R WCI  18
STEVENS POINT  FAIR      26  20  80 N7        30.05R WCI  18
WAUPACA        FAIR      30  24  78 N6        30.06R WCI  24
WAUTOMA        FAIR      29  23  78 NE8       30.04R WCI  21
WISC RAPIDS    FAIR      29  21  72 NE7       30.05R WCI  22
CAMP DOUGLAS   FAIR      28  23  81 N3        30.04R
$$

WIZ011>013-019>022-031-037>040-048>050-251100-
NORTHEAST WISCONSIN

CITY           SKY/WX    TMP DP  RH WIND       PRES   REMARKS
ANTIGO         FAIR      23  19  86 N9        30.05S WCI  13
SHAWANO        FAIR      29  24  79 NE9       30.07R WCI  21
OCONTO         FAIR      28  25  88 N10       30.06R WCI  18
STURGEON BAY   FAIR      27  26  96 N14       30.04  WCI  16
GREEN BAY      FAIR      30  24  78 N16       30.04R WCI  19
MANITOWOC      MOCLDY    28  25  86 N10       30.03R WCI  19
APPLETON       FAIR      27  19  74 N9        30.01R WCI  17
CLINTONVILLE   FAIR      29  23  78 NE10G18   30.06R WCI  20
OSHKOSH        FAIR      29  22  75 N15       30.02R WCI  18
$$

WIZ032>034-041-042-053>061-251100-
SOUTHWEST WISCONSIN

CITY           SKY/WX    TMP DP  RH WIND       PRES   REMARKS
LA CROSSE      FAIR      34  21  59 NE3       30.06R
SPARTA         FAIR      31  24  74 NE8       30.06R WCI  23
VIROQUA        FAIR      30  25  81 NE12G18   30.01R WCI  20
BOSCOBEL       FAIR      34  24  67 NE7       30.01R WCI  28
PRAIRIE DU CHI FAIR      32  22  67 N3        30.01R
PLATTEVILLE    FAIR      31  28  88 NE17G24   29.96R WCI  20
$$

WIZ056-057-062-063-064-067-068-251100-
SOUTH CENTRAL WISCONSIN

CITY           SKY/WX    TMP DP  RH WIND       PRES   REMARKS
REEDSBURG      FAIR      30  22  70 NE9G16    30.02R WCI  22
BARABOO/DELLS  FAIR      28  22  78 NE8       30.02R WCI  19
LONE ROCK      FAIR      32  22  66 NE13G21   30.01R WCI  22
MINERAL POINT  FAIR      32  27  80 NE15G22   29.95R WCI  22
MADISON        FAIR      30  23  75 NE16G26   29.97R WCI  19
MIDDLETON      FAIR      31  23  71 NE16      29.99R WCI  20
WATERTOWN      FAIR      31  27  85 N10       29.96R WCI  22
MONROE         FAIR      31  26  83 NE21G28   29.92R WCI  18
JANESVILLE     FAIR      34  30  86 NE12G17   29.93R WCI  25
$$

WIZ051-052-058>065-066-070>072-251100-
SOUTHEAST WISCONSIN

CITY           SKY/WX    TMP DP  RH WIND       PRES   REMARKS
MILWAUKEE      FAIR      36  29  75 NE16G25   29.93R WCI  26
WAUKESHA       CLOUDY    32  27  80 NE14      29.96R WCI  22
MILWAUKEE/TIMM MOCLDY    34  27  75 NE20G25   29.96R WCI  22
RACINE         FAIR      35  29  78 NE16G25   29.93R WCI  25
KENOSHA        FAIR      36  29  75 NE14      29.91R WCI  27
FOND DU LAC    FAIR      29  21  72 N15       30.01R WCI  18
SHEBOYGAN      FAIR      31  25  78 N8        29.99R WCI  23
WEST BEND      FAIR      32  28  86 NE10      29.97R WCI  24
JUNEAU         FAIR      27  23  82 N10       29.99R WCI  18
$$

LSZ147-162-251100-
LAKE SUPERIOR

STATION/POSITION TIME  TEMP    WIND        PRES    WAVE
                       AIR SEA DIR/SP/G            HT/PER
                 (UTC) (F)     (DEG/KT/KT) (MB)    (FT/S)
DEVILS ISLAND    1000   30      80/ 16/ 18 1023.5R
SAXON HARBOR     0940   19     190/  4/  6 1021.7R
$$

LMZ867-665-643>646-251100-
LAKE MICHIGAN

STATION/POSITION TIME  TEMP    WIND        PRES    WAVE
                       AIR SEA DIR/SP/G            HT/PER
                 (UTC) (F)     (DEG/KT/KT) (MB)    (FT/S)
NORTHPORT PIER   0940   28     330/ 10/ 12 1017.3S
KEWAUNEE LAKESHO 0948   28     340/  9/ 12 1016.2R
SHEBOYGAN LAKESH 1000   35      20/ 23/ 25   N/A
PORT WASHINGTON  0940   35      30/ 11/ 20 1016.3R
MILWAUKEE LAKESH 0820   36      20/ 21/ 23   N/A
KENOSHA   LAKESH 1000   36      30/ 17/ 20 1013.2
$$

TC  - TEMPERATURE IN CELSIUS
VSB - VISIBILITY IN STATUTE MILES
WCI - WIND CHILL INDEX
HX  - HEAT INDEX




USA.gov is the U.S. government's official web portal to all federal, state and local government web resources and services.